Home   Weather   Torreón   Past weeks

Flag for Mexico Past Weather in Torreón, Coahuila de Zaragoza, Mexico — Yesterday and Last 2 Weeks

Now
72 °F

Thunderstorms. Partly sunny.


Feels Like: 72 °F
Forecast: 70 / 92 °F
Wind: 14 mph from Northeast

Location: Torreon - Coah.

Current Time: Jul 20, 2017 at 9:53:20 pm

Latest Report: Jul 20, 2017 at 8:40 pm


Visibility: 4 mi

Pressure: 30.12 "Hg (26.46 "Hg at 1120m altitude)

Humidity: 78%

Dew Point: 64 °F

Location of TorreónLocation

Past Weather in Torreón — Graph

°F

Torreón Temperature Yesterday

Maximum temperature yesterday: 93 °F (at 3:40 pm)
Minimum temperature yesterday: 72 °F (at 4:40 am)
Average temperature yesterday: 84 °F

High & Low Weather Summary for the Past Weeks

 TemperatureHumidityPressure
High97 °F (Jul 7, 5:49 pm)88% (Jul 18, 7:40 am)30.23 "Hg (Jul 18, 7:40 am)
Low70 °F (Jul 18, 6:40 am)20% (Jul 7, 5:49 pm)29.59 "Hg (Jul 11, 6:45 pm)
Average84 °F44%29.98 "Hg
* Reported Jul 5 7:45 pm — Jul 20 7:40 pm, Torreón. Weather by CustomWeather, © 2017

Note: Actual official high and low records may vary slightly from our data, if they occured in-between our weather recording intervals... More about our weather records

Advertising

Torreón Weather History for the Previous 24 Hours

Scroll right to see more
 ConditionsComfort  
Time TempWeatherWind HumidityBarometerVisibility
7:40 pm
Thu, Jul 20
88 °FLight rain. Partly sunny.18 mph40%30.05 "Hg8 mi
6:40 pm93 °FPartly sunny.No wind28%29.71 "Hg10 mi
5:40 pm93 °FPartly sunny.10 mph28%30.04 "Hg10 mi
4:40 pm93 °FPartly sunny.15 mph28%30.06 "Hg10 mi
3:40 pm91 °FPartly sunny.5 mph32%29.80 "Hg10 mi
2:40 pm90 °FBroken clouds.No wind36%30.14 "Hg10 mi
1:45 pm86 °FPartly sunny.No wind40%30.17 "Hg10 mi
12:46 pm86 °FPartly sunny.No wind40%29.88 "Hg10 mi
11:45 am82 °FPartly sunny.9 mph45%30.23 "Hg10 mi
10:40 am81 °FPartly sunny.8 mph48%30.23 "Hg10 mi
9:40 am81 °FPartly sunny.7 mph51%29.88 "Hg10 mi
8:40 am79 °FPartly sunny.9 mph51%30.21 "Hg10 mi
7:42 am77 °FPartly sunny.3 mph57%30.18 "Hg10 mi
6:42 am79 °FPassing clouds.3 mph54%29.82 "Hg8 mi
4:40 am77 °FPassing clouds.No wind57%30.14 "Hg8 mi
10:40 pm
Wed, Jul 19
84 °FPassing clouds.5 mph40%30.11 "Hg10 mi
9:40 pm86 °FPartly cloudy.6 mph38%29.80 "Hg10 mi
Weather by CustomWeather, © 2017

See weather overviewHow to use our weather pages